Keetmanshoop, Namibia

12:13 PM WAST on February 25, 2017 (GMT +0200)
Keetmanshoop

Weather History for FYKT - August, 2014

Change the Weather History Date:

Friday, August 29, 2014

  Actual Average Record
Temperature  
Mean Temperature 47 °F -  
Max Temperature 61 °F - - ()
Min Temperature 33 °F - - ()
Degree Days  
Heating Degree Days 18    
Moisture  
Dew Point 23 °F    
Average Humidity 43    
Maximum Humidity 81    
Minimum Humidity 8    
Precipitation  
Precipitation 0.00 in - - ()
Sea Level Pressure  
Sea Level Pressure 30.33 in    
Wind  
Wind Speed 7 mph ()    
Max Wind Speed 15 mph    
Max Gust Speed -    
T = Trace of Precipitation, MM = Missing Value Source: Averaged Metar Reports

Daily Weather History Graph

Daily Weather History Graph

Search for Another Location

Airport or City:

Trip Planner

Search our weather history database for the weather conditions in past years. The results will help you decide how hot, cold, wet, or windy it might be!

Date:

Astronomy

Aug. 29, 2014 Rise Set
Actual Time 6:03 AM WAT 5:33 PM WAT
Civil Twilight 5:40 AM WAT 5:56 PM WAT
Nautical Twilight 5:13 AM WAT 6:23 PM WAT
Astronomical Twilight 4:46 AM WAT 6:50 PM WAT
Moon 8:06 AM WAT (8/29) 9:00 PM WAT (8/29)
Length of Visible Light 12h 16m
Length of Day
11h 29m
Waxing Crescent, 13% of the Moon is Illuminated
Aug 29
Waxing Crescent
Sep 2
First Quarter
Sep 9
Full
Sep 16
Last Quarter
Sep 24
New

Hourly Weather History & Observations

Time (WAT) Temp. Windchill Dew Point Humidity Pressure Visibility Wind Dir Wind Speed Gust Speed Precip Events Conditions
12:00 AM 42.8 °F 39.3 °F 33.8 °F 70% 30.30 in - South 5.8 mph - N/A   Unknown
1:00 AM 41 °F - 33 °F 63%  in - South 5.8 mph - -  
1:00 AM 41.0 °F 38.0 °F 32.0 °F 70% 30.30 in - South 4.6 mph - N/A   Unknown
2:00 AM 42.8 °F 38.0 °F 32.0 °F 66% 30.30 in - South 8.1 mph - N/A   Unknown
3:00 AM 39.2 °F 35.0 °F 32.0 °F 75% 30.30 in - South 5.8 mph - N/A   Unknown
4:00 AM 39 °F - 32 °F 66%  in - South 6.9 mph - -  
4:00 AM 39.2 °F 35.0 °F 32.0 °F 75% 30.30 in - South 5.8 mph - N/A   Unknown
5:00 AM 37.4 °F 32.8 °F 32.0 °F 81% 30.33 in - SSE 5.8 mph - N/A   Unknown
6:00 AM 35.6 °F 30.7 °F 30.2 °F 81% 30.33 in - East 5.8 mph - N/A   Unknown
7:00 AM 41 °F - 30 °F 54%  in - East 6.9 mph - -  
7:00 AM 39.2 °F 35.0 °F 30.2 °F 70% 30.36 in - East 5.8 mph - N/A   Unknown
8:00 AM 44.6 °F 38.8 °F 28.4 °F 53% 30.39 in - East 11.5 mph - N/A   Unknown
9:00 AM 44.6 °F 38.4 °F 26.6 °F 49% 30.39 in - East 12.7 mph - N/A   Unknown
10:00 AM 49 °F - 20 °F 19%  in 47 mi East 15.0 mph - -  
10:00 AM 48.2 °F - 21.2 °F 34% 30.39 in - East 15.0 mph - N/A   Clear
11:00 AM 51.8 °F - 17.6 °F 26% 30.36 in - East 13.8 mph - N/A   Clear
12:00 PM 55.4 °F - 15.8 °F 21% 30.36 in - East 15.0 mph - N/A   Unknown
1:00 PM 59 °F - 16 °F 9%  in - East 12.7 mph - -  
1:00 PM 57.2 °F - 15.8 °F 20% 30.33 in - East 11.5 mph - N/A   Unknown
2:00 PM 59.0 °F - 14.0 °F 17% 30.30 in - East 12.7 mph - N/A   Unknown
3:00 PM 60.8 °F - 15.8 °F 17% 30.30 in - East 11.5 mph - N/A   Unknown
4:00 PM 61 °F - 15 °F 8%  in 47 mi East 10.4 mph - -  
5:00 PM 57.2 °F - 14.0 °F 18% 30.30 in - East 11.5 mph - N/A   Unknown
6:00 PM 53.6 °F - 14.0 °F 21% 30.30 in - East 8.1 mph - N/A   Unknown
8:00 PM 46.4 °F 42.9 °F 14.0 °F 27% 30.33 in - NE 6.9 mph - N/A   Unknown
10:00 PM 44.6 °F 40.2 °F 14.0 °F 29% 30.36 in - East 8.1 mph - N/A   Unknown
11:00 PM 44.6 °F 40.2 °F 15.8 °F 31% 30.36 in - ENE 8.1 mph - N/A   Unknown